[[{"header":{"parameterUnit":"m.s-1","parameterCategory":1,"la1":30.2991,"la2":30.254,"lo1":-89.0895,"lo2":-89.0444,"dy":0.0017,"dx":0.0017,"nx":28,"ny":28,"refTime":"2024-10-18T21:00:00:Z","depth":0,"parameterNumber":2,"parameterNumberName":"U-component_of_WINDS"},"data":[0,0,0,0,0,0,0,0,0,0,0,0,0,0,0,0,0,0,0,0,0,0,0,0,0,0,0,0,0,0,0,0,0,0,0,0,0,0,0,0,0,0,0,0,0,0,0,0,0,0,0,0,0,0,0,0,0,0,-4.0069,-4.0068,0,-3.9973,-3.9972,-3.9971,-3.9745,-3.9741,-3.9736,-3.9731,-3.9639,-3.964,-3.9642,0,0,0,0,0,0,0,0,0,0,0,0,0,-4.0063,-4.0064,-4.0069,-4.0068,-4.0067,-3.9973,-3.9972,-3.997,-3.9746,-3.974,-3.9735,-3.9729,-3.9638,-3.964,-3.9643,0,0,0,0,0,0,0,0,0,0,0,0,0,-4.0026,-4.0065,-4.0069,-3.9943,-3.9931,-3.9973,-3.9972,-3.997,-3.9747,-3.974,-3.9733,-3.9727,-3.9637,-3.964,-3.9643,-3.9801,0,0,-3.9652,-3.9653,0,0,0,0,0,0,0,0,-4.0029,-4.0027,-3.9963,-3.9952,-3.9939,-3.9864,-3.9935,-3.9914,-3.9749,-3.9817,-3.9731,-3.9723,-3.972,-3.9715,-3.9713,-3.9797,-3.9793,-3.9652,-3.9654,-3.9655,-3.9656,0,0,0,0,0,0,0,-4.0032,-4.003,-4.0031,-3.9963,-3.9948,-3.9893,-3.988,-3.993,-3.9809,-3.9811,-3.9794,-3.9786,-3.9712,-3.9711,-3.9709,-3.9792,-3.9652,-3.9654,-3.9656,-3.9657,-3.9999,-4.0006,0,0,0,0,0,0,-4.0052,-4.0033,-4.0034,-4.0028,-3.9967,-3.9899,-3.9884,-3.9895,-3.9808,-3.9788,-3.9792,-3.9775,-3.9709,-3.9706,-3.9705,-3.9884,-3.9655,-3.9657,-3.9659,-3.9992,-4.0001,-4.0009,0,0,0,0,0,0,-4.0052,-4.0054,-4.0038,-4.0026,-4.002,-3.9906,-3.992,-3.9897,-3.9895,-3.9793,-3.9771,-3.9813,-3.9703,-3.9701,-3.9778,-3.9877,-3.9659,-3.9661,-3.9983,-3.9995,-4.0005,-4.0244,0,0,0,0,0,0,-4.0053,-4.0055,-4.0114,-4.0029,-4.0021,-4.0113,-3.9926,-3.99,-3.99,-3.9878,-3.9807,-3.9789,-3.9698,-3.9775,-3.9781,-3.9877,-3.9664,-3.9974,-3.9988,-4.0001,-4.0227,-4.0262,-4.0292,0,0,0,0,0,-4.0054,-4.0187,-4.0118,-4.0119,-4.0092,-4.0119,-4.0115,-4.0005,-3.9909,-3.9967,-3.9901,-3.9791,-3.9865,-3.9785,-3.979,-3.9889,-3.9967,-3.9984,-4.0,-4.0212,-4.0255,-4.0291,0,0,0,0,0,0,-4.0289,-4.0173,-4.0096,-4.0205,-4.0173,-4.0081,-4.0151,-4.0054,-4.0051,-4.0031,-3.9897,-3.9883,-3.9979,-3.9941,-3.9853,-4.0036,-3.9898,-3.9917,-4.0058,-4.0098,-4.013,-4.0137,-3.9666,0,0,0,0,0,-4.0353,-4.0383,-4.0281,-4.0387,-4.0375,-4.0266,-4.0274,-4.0192,-4.0155,-4.0141,-4.008,-4.005,-4.0065,-4.0079,-4.0088,-4.022,-4.0201,-4.029,-4.0322,-4.035,-4.0368,-4.0433,-4.0472,-4.0063,-4.0063,-4.0063,0,0,-4.0487,-4.0427,-4.0455,-4.0433,-4.0398,-4.0434,-4.0257,-4.0302,-4.0327,-4.0148,-4.0216,-4.0172,-4.0128,-4.0233,-4.0277,-4.0205,-4.0476,-4.0371,-4.0393,-4.0396,-4.0455,-4.0493,-4.0528,-4.0075,-4.0073,-4.0071,0,0,-4.0748,-4.0706,-4.0789,-4.0757,-4.0706,-4.0633,-4.0653,-4.0575,-4.0537,-4.0603,-4.047,-4.0498,-4.0529,-4.0503,-4.0494,-4.0744,-4.0642,-4.0751,-4.0922,-4.0988,-4.102,-4.1048,-4.1137,-4.117,-4.0769,-4.0769,-4.077,0,-4.0921,-4.0967,-4.0844,-4.0897,-4.0892,-4.0728,-4.0812,-4.0788,-4.0745,-4.0745,-4.0665,-4.0698,-4.0658,-4.0754,-4.0815,-4.0813,-4.0833,-4.0759,-4.1025,-4.1051,-4.1076,-4.1159,-4.1193,-4.0783,-4.0781,-4.078,-4.0779,0,-4.1182,-4.1216,-4.1289,-4.1248,-4.1251,-4.132,-4.1208,-4.1226,-4.1144,-4.1079,-4.1149,-4.1094,-4.1089,-4.1105,-4.1027,-4.1191,-4.1147,-4.1048,-4.0907,-4.113,-4.1206,-4.1237,-4.0802,-4.0797,-4.0793,-4.079,0,0,-4.159,-4.1478,-4.1508,-4.1486,-4.1417,-4.1442,-4.1503,-4.1496,-4.1513,-4.1488,-4.1537,-4.1565,-4.1472,-4.1462,-4.1379,-4.1437,-4.1638,-4.133,-4.1327,-4.1389,-4.1816,-4.1891,-4.1931,-4.157,-4.1575,-4.158,-4.1819,0,-4.1835,-4.1931,-4.1822,-4.1942,-4.1972,-4.1816,-4.1869,-4.1834,-4.1775,-4.1793,-4.1728,-4.175,-4.1625,-4.1618,-4.1669,-4.1603,-4.1722,-4.1584,-4.1615,-4.1618,-4.1631,-4.197,-4.205,-4.2279,-4.1848,-4.1853,-4.1857,0,-4.2135,-4.2121,-4.2243,-4.2165,-4.2173,-4.2223,-4.2206,-4.2225,-4.2181,-4.2134,-4.2123,-4.2021,-4.2077,-4.1938,-4.2013,-4.1922,-4.1928,-4.1898,-4.1904,-4.1903,-4.1752,-4.198,-4.2349,-4.2385,-4.1903,-4.1899,-4.1896,0,-4.242,-4.2433,-4.2506,-4.2493,-4.2404,-4.2442,-4.2407,-4.2356,-4.2358,-4.2345,-4.2345,-4.2339,-4.2336,-4.2335,-4.2235,-4.2143,-4.2323,-4.2176,-4.2286,-4.2289,-4.2332,-4.2331,-4.2709,-4.2336,-4.2335,-4.2334,-4.2334,0,-4.2706,-4.2787,-4.2633,-4.2679,-4.2765,-4.2639,-4.2728,-4.2678,-4.2633,-4.2668,-4.2533,-4.2569,-4.2434,-4.2456,-4.2378,-4.2452,-4.2452,-4.2416,-4.2395,-4.2429,-4.2434,-4.2432,-4.2413,-4.2343,-4.2341,-4.234,-4.2338,0,-4.304,-4.294,-4.3011,-4.2919,-4.2898,-4.2966,-4.2888,-4.2927,-4.2859,-4.2904,-4.2907,-4.2801,-4.2819,-4.2718,-4.2719,-4.2667,-4.2779,-4.2731,-4.2794,-4.2779,-4.2895,-4.2886,-4.3286,-4.3332,-4.293,-4.2934,-4.2937,0,-4.3229,-4.3287,-4.3201,-4.3213,-4.3184,-4.3206,-4.3206,-4.3084,-4.3091,-4.3044,-4.309,-4.3096,-4.3095,-4.3131,-4.3055,-4.3055,-4.3005,-4.3145,-4.3005,-4.3037,-4.3008,-4.3006,-4.3011,-4.3176,-4.3181,-4.3185,-4.3188,0,-4.3575,-4.3522,-4.3527,-4.3515,-4.3518,-4.3504,-4.348,-4.3498,-4.3366,-4.338,-4.3396,-4.3395,-4.3394,-4.3402,-4.3387,-4.3351,-4.325,-4.3233,-4.3258,-4.3294,-4.3328,-4.3311,-4.2875,-4.3224,-4.3221,-4.3218,-4.3216,-4.3215,-4.3842,-4.3886,-4.3831,-4.3841,-4.381,-4.3791,-4.3822,-4.3757,-4.3767,-4.3755,-4.3683,-4.3712,-4.3666,-4.3634,-4.3609,-4.3631,-4.3564,-4.3601,-4.361,-4.3622,-4.3642,-4.3324,-4.3627,-4.3626,-4.3625,-4.3624,-4.3623,0,-4.4181,-4.4137,-4.4147,-4.4117,-4.4125,-4.4024,-4.3993,-4.4007,-4.4033,-4.3998,-4.3999,-4.4017,-4.4024,-4.3948,-4.3945,-4.3978,-4.3931,-4.3981,-4.3978,-4.3972,-4.3702,-4.368,-4.4019,-4.4019,-4.4019,-4.4019,-4.4019,-4.4019,-4.4358,-4.4427,-4.4368,-4.442,-4.4376,-4.4401,-4.4392,-4.4374,-4.4344,-4.437,-4.4374,-4.4323,-4.4272,-4.4264,-4.4267,-4.4244,-4.425,-4.4317,-4.4279,-4.4029,-4.3991,-4.3954,-4.3933,-4.4319,-4.432,-4.4547,-4.4549,-4.455]},{"header":{"parameterUnit":"m.s-1","parameterCategory":1,"la1":30.2991,"la2":30.254,"lo1":-89.0895,"lo2":-89.0444,"dy":0.0017,"dx":0.0017,"nx":28,"ny":28,"refTime":"2024-10-18T21:00:00:Z","depth":0,"parameterNumber":3,"parameterNumberName":"V-component_of_WINDS"},"data":[0,0,0,0,0,0,0,0,0,0,0,0,0,0,0,0,0,0,0,0,0,0,0,0,0,0,0,0,0,0,0,0,0,0,0,0,0,0,0,0,0,0,0,0,0,0,0,0,0,0,0,0,0,0,0,0,0,0,-2.7575,-2.7576,0,-2.7714,-2.7716,-2.7717,-2.7754,-2.7753,-2.7752,-2.7751,-2.789,-2.7894,-2.7898,0,0,0,0,0,0,0,0,0,0,0,0,0,-2.7334,-2.7339,-2.7575,-2.7576,-2.7578,-2.7714,-2.7716,-2.7718,-2.7754,-2.7753,-2.7752,-2.7751,-2.7888,-2.7893,-2.7899,0,0,0,0,0,0,0,0,0,0,0,0,0,-2.7453,-2.734,-2.7574,-2.7613,-2.7618,-2.7713,-2.7716,-2.7718,-2.7754,-2.7753,-2.7752,-2.7751,-2.7886,-2.7893,-2.79,-2.7966,0,0,-2.792,-2.7923,0,0,0,0,0,0,0,0,-2.7446,-2.7461,-2.7605,-2.761,-2.7616,-2.7715,-2.7682,-2.7801,-2.7755,-2.7702,-2.7751,-2.775,-2.7832,-2.7843,-2.7872,-2.7972,-2.7978,-2.7921,-2.7925,-2.7927,-2.7929,0,0,0,0,0,0,0,-2.7438,-2.7455,-2.763,-2.7607,-2.7614,-2.7621,-2.7637,-2.7705,-2.7772,-2.7707,-2.771,-2.7726,-2.7835,-2.7866,-2.7876,-2.798,-2.792,-2.7926,-2.793,-2.7933,-2.8139,-2.814,0,0,0,0,0,0,-2.7423,-2.7448,-2.7625,-2.7634,-2.7526,-2.7626,-2.7644,-2.7685,-2.7772,-2.7784,-2.7727,-2.7727,-2.7855,-2.7868,-2.7881,-2.7962,-2.7927,-2.7934,-2.7938,-2.8137,-2.8139,-2.8141,0,0,0,0,0,0,-2.7418,-2.7439,-2.762,-2.7542,-2.7566,-2.7632,-2.7678,-2.7688,-2.7719,-2.7787,-2.7799,-2.7746,-2.7854,-2.7871,-2.7944,-2.7968,-2.7937,-2.7943,-2.8136,-2.8138,-2.814,-2.8127,0,0,0,0,0,0,-2.7411,-2.7437,-2.7464,-2.7543,-2.757,-2.7682,-2.7679,-2.7692,-2.7731,-2.7732,-2.7808,-2.782,-2.7855,-2.7934,-2.7951,-2.7976,-2.7948,-2.8134,-2.8137,-2.8139,-2.8126,-2.8129,-2.8131,0,0,0,0,0,-2.7402,-2.7455,-2.7465,-2.7487,-2.7606,-2.7684,-2.7699,-2.774,-2.7733,-2.776,-2.7803,-2.7817,-2.7963,-2.7941,-2.796,-2.7988,-2.8132,-2.8136,-2.8139,-2.8125,-2.8128,-2.8131,0,0,0,0,0,0,-2.7376,-2.7466,-2.7479,-2.7558,-2.7613,-2.769,-2.7725,-2.7743,-2.78,-2.7799,-2.7845,-2.7862,-2.7931,-2.7967,-2.7942,-2.8056,-2.8047,-2.8055,-2.803,-2.8034,-2.8036,-2.8026,-2.7954,0,0,0,0,0,-2.738,-2.7438,-2.7512,-2.7575,-2.7602,-2.7659,-2.7694,-2.7721,-2.7779,-2.7802,-2.7851,-2.7906,-2.7964,-2.8001,-2.8058,-2.8131,-2.8147,-2.816,-2.8162,-2.8164,-2.817,-2.8209,-2.8215,-2.8151,-2.8151,-2.8151,0,0,-2.7388,-2.7444,-2.7477,-2.7571,-2.7617,-2.7673,-2.7678,-2.7738,-2.778,-2.7811,-2.7883,-2.792,-2.7984,-2.8057,-2.8091,-2.8089,-2.819,-2.8168,-2.8169,-2.8174,-2.8213,-2.8218,-2.8224,-2.8154,-2.8153,-2.8153,0,0,-2.7431,-2.748,-2.7537,-2.7582,-2.7652,-2.7689,-2.7702,-2.7777,-2.7803,-2.7876,-2.79,-2.7949,-2.8048,-2.8092,-2.8128,-2.8185,-2.8199,-2.8202,-2.8216,-2.8253,-2.8258,-2.8263,-2.8282,-2.8288,-2.8208,-2.8208,-2.8208,0,-2.7431,-2.752,-2.7563,-2.7622,-2.7662,-2.7693,-2.7749,-2.7791,-2.7875,-2.79,-2.7897,-2.8021,-2.8066,-2.8149,-2.8162,-2.8191,-2.8206,-2.8194,-2.8254,-2.826,-2.8264,-2.8283,-2.829,-2.8207,-2.8207,-2.8207,-2.8207,0,-2.7516,-2.7576,-2.7613,-2.7694,-2.7738,-2.7795,-2.7846,-2.7884,-2.7906,-2.7943,-2.8015,-2.8071,-2.8139,-2.816,-2.8182,-2.8245,-2.8241,-2.8246,-2.8238,-2.8269,-2.8287,-2.8295,-2.8207,-2.8207,-2.8207,-2.8207,0,0,-2.7547,-2.7651,-2.7663,-2.77,-2.7778,-2.7824,-2.7882,-2.7949,-2.7981,-2.8037,-2.8085,-2.8167,-2.8171,-2.8211,-2.8238,-2.8271,-2.8311,-2.8271,-2.8273,-2.8275,-2.8381,-2.8376,-2.8384,-2.8321,-2.8323,-2.8324,-2.8375,0,-2.7599,-2.7704,-2.7744,-2.783,-2.7885,-2.7914,-2.7964,-2.8016,-2.8051,-2.8101,-2.814,-2.8197,-2.8199,-2.8223,-2.8257,-2.8299,-2.8332,-2.8296,-2.8364,-2.8366,-2.8346,-2.8394,-2.839,-2.8436,-2.8382,-2.8384,-2.8385,0,-2.7673,-2.7731,-2.7822,-2.7892,-2.7916,-2.796,-2.8024,-2.8073,-2.8131,-2.8155,-2.8198,-2.8223,-2.8282,-2.8271,-2.8352,-2.8326,-2.8356,-2.838,-2.8383,-2.839,-2.8376,-2.8401,-2.8451,-2.8458,-2.8396,-2.8396,-2.8395,0,-2.7685,-2.7785,-2.7852,-2.7882,-2.7966,-2.7996,-2.8031,-2.8089,-2.8126,-2.8182,-2.8206,-2.8267,-2.83,-2.8345,-2.8385,-2.8374,-2.8461,-2.8454,-2.848,-2.8479,-2.8497,-2.8495,-2.8551,-2.8518,-2.8518,-2.8518,-2.8517,0,-2.7738,-2.7792,-2.7858,-2.7899,-2.796,-2.8004,-2.8062,-2.81,-2.815,-2.8198,-2.8227,-2.827,-2.832,-2.8369,-2.84,-2.8461,-2.8476,-2.8495,-2.8502,-2.8492,-2.8489,-2.8511,-2.8509,-2.8519,-2.8519,-2.8519,-2.8518,0,-2.7761,-2.7808,-2.7882,-2.7955,-2.7974,-2.8015,-2.8076,-2.8116,-2.8152,-2.8212,-2.8228,-2.8284,-2.8344,-2.8388,-2.8464,-2.8485,-2.8549,-2.8557,-2.853,-2.8533,-2.8556,-2.8553,-2.8628,-2.864,-2.8599,-2.86,-2.86,0,-2.7791,-2.7833,-2.791,-2.7944,-2.798,-2.8035,-2.8073,-2.8117,-2.8156,-2.8224,-2.8255,-2.8317,-2.8368,-2.8461,-2.8508,-2.8565,-2.8575,-2.8597,-2.8583,-2.8571,-2.8573,-2.857,-2.8573,-2.8598,-2.8599,-2.8599,-2.8599,0,-2.7839,-2.7859,-2.7914,-2.7976,-2.8021,-2.8072,-2.8124,-2.8149,-2.8203,-2.8244,-2.8305,-2.8345,-2.8423,-2.8482,-2.8545,-2.858,-2.8597,-2.8603,-2.8612,-2.8601,-2.8583,-2.8591,-2.8533,-2.8601,-2.8601,-2.8601,-2.86,-2.86,-2.7865,-2.7904,-2.7963,-2.8022,-2.8066,-2.8112,-2.8153,-2.8194,-2.8247,-2.8314,-2.8337,-2.8399,-2.8455,-2.8541,-2.8576,-2.8624,-2.8624,-2.8637,-2.864,-2.8642,-2.8641,-2.8576,-2.8636,-2.8636,-2.8636,-2.8636,-2.8636,0,-2.7913,-2.7953,-2.8007,-2.8078,-2.8124,-2.8138,-2.8195,-2.8232,-2.8287,-2.8338,-2.8388,-2.8457,-2.8514,-2.8565,-2.8625,-2.8653,-2.8663,-2.8667,-2.8665,-2.8672,-2.8639,-2.8624,-2.8659,-2.8659,-2.8659,-2.8659,-2.8659,-2.8659,-2.7944,-2.8009,-2.8036,-2.8121,-2.816,-2.8223,-2.8254,-2.8296,-2.8337,-2.8413,-2.8461,-2.8495,-2.8545,-2.8608,-2.866,-2.8674,-2.8693,-2.8696,-2.8711,-2.8678,-2.8675,-2.8672,-2.8659,-2.87,-2.87,-2.874,-2.8741,-2.8741]}]]